sat.trackr.live / text

‹ back to catalog

SUOMI-100

NORAD 43804 · 2018-099AY

PAYLOAD ACTIVE UNKNOWN

§ Identity

Operator
Country
FIN
Launch date
2018-12-03
Launch site
AFWTR
Launch vehicle
Mass (kg)
RCS (m²)

External: N2YO · Heavens-Above · Gunter

§ Orbital elements

Epoch: 2026-09-12T16:26:06.633600Z

Period
94.10 min
Inclination
97.4098°
Eccentricity
0.0008582
Mean motion
15.30245180 rev/d
Perigee alt
469.2 km
Apogee alt
481.0 km
Semi-major
6,853.2 km
B*
2.9394e-4
RAAN
315.8258°
Arg perigee
338.6251°
Mean anomaly
21.4630°
Rev number
42,679

§ Raw data

SUOMI-1001 43804U 18099AY  26255.68479900  .00008534  00000+0  29394-3 0  99982 43804  97.4098 315.8258 0008582 338.6251  21.4630 15.30245180426794

JSON: /api/v1/satellites/43804 · /tle

For live sub-satellite position, see the globe view (requires WebGL).

§ Visibility from observer

Set your observer location to see the next 7 days of passes ≥ 10°. The values pass through the URL so the page stays shareable.

No JS? Fill the form by hand. The geolocation button needs JavaScript.

§ Radio — SatNOGS DB

ModeDescriptionDownlinkUplink
MSK AX.100 Mode 5 GMSK9k6 TLM 437.775 MHz

1 transmitter · refreshed weekly from db.satnogs.org